Time,TemperatureF,DewpointF,PressureIn,WindDirection,WindDirectionDegrees,WindSpeedMPH,WindSpeedGustMPH,Humidity,HourlyPrecipIn,Conditions,Clouds,dailyrainin,SoftwareType,DateUTC
2013-07-21 00:02:00,71.5,66.8,29.86,WSW,252,0.0,0.0,85,0.00,,,0.00,Wunderground v.1.15,2013-07-21 05:02:00,
2013-07-21 00:07:00,71.2,66.8,29.86,WSW,252,0.0,0.0,86,0.00,,,0.00,Wunderground v.1.15,2013-07-21 05:07:00,
2013-07-21 00:12:00,70.9,66.5,29.86,WSW,253,1.0,2.0,86,0.00,,,0.00,Wunderground v.1.15,2013-07-21 05:12:00,
2013-07-21 00:17:00,70.4,66.3,29.86,WSW,252,2.0,2.0,87,0.00,,,0.00,Wunderground v.1.15,2013-07-21 05:17:00,
2013-07-21 00:22:00,70.1,66.0,29.86,WSW,253,1.0,2.0,87,0.00,,,0.00,Wunderground v.1.15,2013-07-21 05:22:00,
2013-07-21 00:27:00,70.0,66.0,29.86,WSW,253,1.0,2.0,87,0.00,,,0.00,Wunderground v.1.15,2013-07-21 05:27:00,
2013-07-21 00:32:00,69.8,65.8,29.86,WSW,253,0.0,0.0,87,0.00,,,0.00,Wunderground v.1.15,2013-07-21 05:32:00,
2013-07-21 00:37:00,69.8,66.1,29.86,WSW,252,0.0,0.0,88,0.00,,,0.00,Wunderground v.1.15,2013-07-21 05:37:00,
2013-07-21 00:42:00,68.7,65.0,29.86,WSW,242,0.0,0.0,88,0.00,,,0.00,Wunderground v.1.15,2013-07-21 05:42:00,
2013-07-21 00:47:00,68.1,64.7,29.86,WSW,243,0.0,0.0,89,0.00,,,0.00,Wunderground v.1.15,2013-07-21 05:47:00,
2013-07-21 00:52:00,68.4,65.0,29.86,WSW,246,0.0,1.0,89,0.00,,,0.00,Wunderground v.1.15,2013-07-21 05:52:00,
2013-07-21 00:57:00,67.9,64.5,29.85,West,268,1.0,2.0,89,0.00,,,0.00,Wunderground v.1.15,2013-07-21 05:57:00,
2013-07-21 01:03:00,67.6,64.2,29.85,West,268,2.0,3.0,89,0.00,,,0.00,Wunderground v.1.15,2013-07-21 06:03:00,
2013-07-21 01:08:00,67.4,64.0,29.85,SW,215,1.0,3.0,89,0.00,,,0.00,Wunderground v.1.15,2013-07-21 06:08:00,
2013-07-21 01:13:00,66.7,63.7,29.85,SSW,208,1.0,1.0,90,0.00,,,0.00,Wunderground v.1.15,2013-07-21 06:13:00,
2013-07-21 01:18:00,66.9,63.9,29.86,SSW,207,1.0,1.0,90,0.00,,,0.00,Wunderground v.1.15,2013-07-21 06:18:00,
2013-07-21 01:23:00,67.1,64.1,29.85,SSW,207,0.0,0.0,90,0.00,,,0.00,Wunderground v.1.15,2013-07-21 06:23:00,
2013-07-21 01:28:00,66.8,63.8,29.85,SSW,207,0.0,0.0,90,0.00,,,0.00,Wunderground v.1.15,2013-07-21 06:28:00,
2013-07-21 01:33:00,66.6,63.6,29.85,SSW,208,0.0,0.0,90,0.00,,,0.00,Wunderground v.1.15,2013-07-21 06:33:00,
2013-07-21 01:38:00,66.8,63.8,29.85,SSW,208,0.0,0.0,90,0.00,,,0.00,Wunderground v.1.15,2013-07-21 06:38:00,
2013-07-21 01:43:00,67.0,64.0,29.85,SSW,209,0.0,0.0,90,0.00,,,0.00,Wunderground v.1.15,2013-07-21 06:43:00,
2013-07-21 01:48:00,67.2,64.2,29.85,WSW,243,0.0,3.0,90,0.00,,,0.00,Wunderground v.1.15,2013-07-21 06:48:00,
2013-07-21 01:53:00,67.3,64.3,29.85,West,261,1.0,3.0,90,0.00,,,0.00,Wunderground v.1.15,2013-07-21 06:53:00,
2013-07-21 01:58:00,66.6,63.6,29.85,South,180,2.0,3.0,90,0.00,,,0.00,Wunderground v.1.15,2013-07-21 06:58:00,
2013-07-21 02:04:00,66.0,63.0,29.85,SSW,202,1.0,2.0,90,0.00,,,0.00,Wunderground v.1.15,2013-07-21 07:04:00,
2013-07-21 02:09:00,65.7,62.7,29.85,SSW,204,1.0,2.0,90,0.00,,,0.00,Wunderground v.1.15,2013-07-21 07:09:00,
2013-07-21 02:14:00,65.6,62.6,29.85,SSW,206,0.0,1.0,90,0.00,,,0.00,Wunderground v.1.15,2013-07-21 07:14:00,
2013-07-21 02:19:00,65.8,62.8,29.85,SSW,206,0.0,1.0,90,0.00,,,0.00,Wunderground v.1.15,2013-07-21 07:19:00,
2013-07-21 02:24:00,66.2,63.2,29.85,SSW,206,0.0,0.0,90,0.00,,,0.00,Wunderground v.1.15,2013-07-21 07:24:00,
2013-07-21 02:29:00,66.4,63.4,29.85,SSW,206,0.0,0.0,90,0.00,,,0.00,Wunderground v.1.15,2013-07-21 07:29:00,
2013-07-21 02:34:00,66.5,63.5,29.85,SSW,206,0.0,0.0,90,0.00,,,0.00,Wunderground v.1.15,2013-07-21 07:34:00,
2013-07-21 02:39:00,66.7,63.7,29.85,SW,216,0.0,0.0,90,0.00,,,0.00,Wunderground v.1.15,2013-07-21 07:39:00,
2013-07-21 02:44:00,67.0,64.0,29.85,SW,216,0.0,0.0,90,0.00,,,0.00,Wunderground v.1.15,2013-07-21 07:44:00,
2013-07-21 02:49:00,67.1,64.1,29.85,SW,216,0.0,0.0,90,0.00,,,0.00,Wunderground v.1.15,2013-07-21 07:49:00,
2013-07-21 02:54:00,67.2,64.2,29.85,SW,216,0.0,0.0,90,0.00,,,0.00,Wunderground v.1.15,2013-07-21 07:54:00,
2013-07-21 02:59:00,67.2,64.2,29.85,SW,216,0.0,0.0,90,0.00,,,0.00,Wunderground v.1.15,2013-07-21 07:59:00,
2013-07-21 03:04:00,67.3,64.3,29.85,SW,216,0.0,0.0,90,0.00,,,0.00,Wunderground v.1.15,2013-07-21 08:04:00,
2013-07-21 03:09:00,67.3,64.3,29.85,SW,216,0.0,0.0,90,0.00,,,0.00,Wunderground v.1.15,2013-07-21 08:09:00,
2013-07-21 03:14:00,67.2,64.2,29.85,SW,216,0.0,1.0,90,0.00,,,0.00,Wunderground v.1.15,2013-07-21 08:14:00,
2013-07-21 03:19:00,67.0,64.0,29.85,SW,216,0.0,1.0,90,0.00,,,0.00,Wunderground v.1.15,2013-07-21 08:19:00,
2013-07-21 03:25:00,66.8,63.8,29.85,SW,229,0.0,2.0,90,0.00,,,0.00,Wunderground v.1.15,2013-07-21 08:25:00,
2013-07-21 03:30:00,66.8,63.8,29.85,WSW,258,2.0,2.0,90,0.00,,,0.00,Wunderground v.1.15,2013-07-21 08:30:00,
2013-07-21 03:35:00,66.9,63.9,29.85,West,265,3.0,3.0,90,0.00,,,0.00,Wunderground v.1.15,2013-07-21 08:35:00,
2013-07-21 03:40:00,67.0,64.0,29.85,West,278,3.0,4.0,90,0.00,,,0.00,Wunderground v.1.15,2013-07-21 08:40:00,
2013-07-21 03:45:00,66.7,63.7,29.85,WNW,297,4.0,5.0,90,0.00,,,0.00,Wunderground v.1.15,2013-07-21 08:45:00,
2013-07-21 03:50:00,65.9,62.9,29.84,WNW,303,4.0,4.0,90,0.00,,,0.00,Wunderground v.1.15,2013-07-21 08:50:00,
2013-07-21 03:56:00,65.3,62.3,29.85,WNW,301,3.0,4.0,90,0.00,,,0.00,Wunderground v.1.15,2013-07-21 08:56:00,
2013-07-21 04:02:00,65.0,62.0,29.85,NW,307,2.0,4.0,90,0.00,,,0.00,Wunderground v.1.15,2013-07-21 09:02:00,
2013-07-21 04:07:00,64.9,61.9,29.85,NW,313,3.0,4.0,90,0.00,,,0.00,Wunderground v.1.15,2013-07-21 09:07:00,
2013-07-21 04:12:00,64.8,61.8,29.85,WNW,288,3.0,3.0,90,0.00,,,0.00,Wunderground v.1.15,2013-07-21 09:12:00,
2013-07-21 04:18:00,64.6,61.6,29.85,WNW,287,2.0,3.0,90,0.00,,,0.00,Wunderground v.1.15,2013-07-21 09:18:00,
2013-07-21 04:23:00,64.6,61.6,29.85,WNW,288,1.0,2.0,90,0.00,,,0.00,Wunderground v.1.15,2013-07-21 09:23:00,
2013-07-21 04:28:00,64.5,61.5,29.85,WNW,288,2.0,2.0,90,0.00,,,0.00,Wunderground v.1.15,2013-07-21 09:28:00,
2013-07-21 04:33:00,64.4,61.4,29.84,WNW,291,2.0,4.0,90,0.00,,,0.00,Wunderground v.1.15,2013-07-21 09:33:00,
2013-07-21 04:38:00,64.3,61.3,29.85,NW,313,3.0,4.0,90,0.00,,,0.00,Wunderground v.1.15,2013-07-21 09:38:00,
2013-07-21 04:44:00,64.2,61.2,29.85,NW,304,3.0,4.0,90,0.00,,,0.00,Wunderground v.1.15,2013-07-21 09:44:00,
2013-07-21 04:49:00,64.1,61.1,29.85,NW,315,3.0,4.0,90,0.00,,,0.00,Wunderground v.1.15,2013-07-21 09:49:00,
2013-07-21 04:54:00,63.9,60.9,29.85,NNW,346,4.0,5.0,90,0.00,,,0.00,Wunderground v.1.15,2013-07-21 09:54:00,
2013-07-21 04:59:00,63.9,60.9,29.85,NW,317,4.0,5.0,90,0.00,,,0.00,Wunderground v.1.15,2013-07-21 09:59:00,
2013-07-21 05:04:00,63.9,60.9,29.85,WNW,288,2.0,3.0,90,0.00,,,0.00,Wunderground v.1.15,2013-07-21 10:04:00,
2013-07-21 05:09:00,64.0,61.0,29.84,WNW,295,1.0,3.0,90,0.00,,,0.00,Wunderground v.1.15,2013-07-21 10:09:00,
2013-07-21 05:14:00,63.9,60.9,29.84,NNW,329,0.0,1.0,90,0.00,,,0.00,Wunderground v.1.15,2013-07-21 10:14:00,
2013-07-21 05:19:00,63.9,60.9,29.85,NW,322,1.0,3.0,90,0.00,,,0.00,Wunderground v.1.15,2013-07-21 10:19:00,
2013-07-21 05:24:00,63.9,60.9,29.85,WNW,289,2.0,2.0,90,0.00,,,0.00,Wunderground v.1.15,2013-07-21 10:24:00,
2013-07-21 05:29:00,63.9,60.9,29.85,WNW,289,1.0,2.0,90,0.00,,,0.00,Wunderground v.1.15,2013-07-21 10:29:00,
2013-07-21 05:34:00,63.8,60.8,29.86,WNW,289,0.0,1.0,90,0.00,,,0.00,Wunderground v.1.15,2013-07-21 10:34:00,
2013-07-21 05:39:00,63.9,60.9,29.86,NE,51,1.0,4.0,90,0.00,,,0.00,Wunderground v.1.15,2013-07-21 10:39:00,
2013-07-21 05:44:00,64.4,61.4,29.86,NE,51,2.0,3.0,90,0.00,,,0.00,Wunderground v.1.15,2013-07-21 10:44:00,
2013-07-21 05:50:00,64.6,61.6,29.86,ENE,61,2.0,3.0,90,0.00,,,0.00,Wunderground v.1.15,2013-07-21 10:50:00,
2013-07-21 05:55:00,64.7,61.7,29.86,East,91,2.0,3.0,90,0.00,,,0.00,Wunderground v.1.15,2013-07-21 10:55:00,
2013-07-21 06:00:00,64.7,61.7,29.86,ESE,102,2.0,2.0,90,0.00,,,0.00,Wunderground v.1.15,2013-07-21 11:00:00,
2013-07-21 06:06:00,64.6,61.6,29.86,East,85,2.0,3.0,90,0.00,,,0.00,Wunderground v.1.15,2013-07-21 11:06:00,
2013-07-21 06:11:00,64.8,61.8,29.86,ENE,69,2.0,3.0,90,0.00,,,0.00,Wunderground v.1.15,2013-07-21 11:11:00,
2013-07-21 06:16:00,65.1,62.1,29.86,East,89,2.0,3.0,90,0.00,,,0.00,Wunderground v.1.15,2013-07-21 11:16:00,
2013-07-21 06:21:00,65.5,62.5,29.86,ENE,78,3.0,4.0,90,0.00,,,0.00,Wunderground v.1.15,2013-07-21 11:21:00,
2013-07-21 06:26:00,65.9,62.9,29.86,ENE,74,4.0,4.0,90,0.00,,,0.00,Wunderground v.1.15,2013-07-21 11:26:00,
2013-07-21 06:31:00,66.1,63.1,29.86,ENE,68,3.0,3.0,90,0.00,,,0.00,Wunderground v.1.15,2013-07-21 11:31:00,
2013-07-21 06:36:00,66.1,63.1,29.87,ESE,102,2.0,3.0,90,0.00,,,0.00,Wunderground v.1.15,2013-07-21 11:36:00,
2013-07-21 06:41:00,66.2,63.2,29.87,ESE,102,2.0,2.0,90,0.00,,,0.00,Wunderground v.1.15,2013-07-21 11:41:00,
2013-07-21 06:46:00,66.4,63.4,29.87,SE,126,2.0,4.0,90,0.00,,,0.00,Wunderground v.1.15,2013-07-21 11:46:00,
2013-07-21 06:51:00,66.4,63.4,29.87,East,97,2.0,2.0,90,0.00,,,0.00,Wunderground v.1.15,2013-07-21 11:51:00,
2013-07-21 06:56:00,66.4,63.4,29.87,ESE,119,3.0,4.0,90,0.00,,,0.00,Wunderground v.1.15,2013-07-21 11:56:00,
2013-07-21 07:01:00,66.4,63.4,29.88,ESE,104,3.0,3.0,90,0.00,,,0.00,Wunderground v.1.15,2013-07-21 12:01:00,
2013-07-21 07:06:00,66.4,63.4,29.88,ENE,68,2.0,4.0,90,0.00,,,0.00,Wunderground v.1.15,2013-07-21 12:06:00,
2013-07-21 07:11:00,66.5,63.8,29.88,ENE,69,3.0,3.0,91,0.00,,,0.00,Wunderground v.1.15,2013-07-21 12:11:00,
2013-07-21 07:16:00,66.6,63.9,29.89,ENE,62,3.0,4.0,91,0.00,,,0.00,Wunderground v.1.15,2013-07-21 12:16:00,
2013-07-21 07:21:00,66.6,63.9,29.89,ESE,117,2.0,3.0,91,0.00,,,0.00,Wunderground v.1.15,2013-07-21 12:21:00,
2013-07-21 07:26:00,66.7,64.0,29.89,ESE,115,3.0,4.0,91,0.00,,,0.00,Wunderground v.1.15,2013-07-21 12:26:00,
2013-07-21 07:32:00,66.8,64.1,29.89,ESE,111,3.0,3.0,91,0.00,,,0.00,Wunderground v.1.15,2013-07-21 12:32:00,
2013-07-21 07:37:00,66.9,64.2,29.88,ESE,123,3.0,4.0,91,0.00,,,0.00,Wunderground v.1.15,2013-07-21 12:37:00,
2013-07-21 07:42:00,67.1,64.4,29.88,SE,142,3.0,3.0,91,0.00,,,0.00,Wunderground v.1.15,2013-07-21 12:42:00,
2013-07-21 07:47:00,67.2,64.5,29.88,East,100,3.0,4.0,91,0.00,,,0.00,Wunderground v.1.15,2013-07-21 12:47:00,
2013-07-21 07:52:00,67.4,64.7,29.88,ESE,119,3.0,3.0,91,0.00,,,0.00,Wunderground v.1.15,2013-07-21 12:52:00,
2013-07-21 07:57:00,67.6,64.9,29.88,SE,127,3.0,3.0,91,0.00,,,0.00,Wunderground v.1.15,2013-07-21 12:57:00,
2013-07-21 08:03:00,68.1,65.4,29.89,ESE,116,3.0,3.0,91,0.00,,,0.00,Wunderground v.1.15,2013-07-21 13:03:00,
2013-07-21 08:08:00,68.2,65.5,29.88,ESE,110,3.0,4.0,91,0.00,,,0.00,Wunderground v.1.15,2013-07-21 13:08:00,
2013-07-21 08:13:00,68.5,65.8,29.88,ESE,108,3.0,3.0,91,0.00,,,0.00,Wunderground v.1.15,2013-07-21 13:13:00,
2013-07-21 08:18:00,68.8,66.1,29.88,ESE,111,3.0,3.0,91,0.00,,,0.00,Wunderground v.1.15,2013-07-21 13:18:00,
2013-07-21 08:23:00,69.4,66.7,29.88,ESE,102,3.0,3.0,91,0.00,,,0.00,Wunderground v.1.15,2013-07-21 13:23:00,
2013-07-21 08:28:00,69.9,67.2,29.88,ESE,104,2.0,3.0,91,0.00,,,0.00,Wunderground v.1.15,2013-07-21 13:28:00,
2013-07-21 08:33:00,70.1,67.0,29.88,ENE,75,2.0,5.0,90,0.00,,,0.00,Wunderground v.1.15,2013-07-21 13:33:00,
2013-07-21 08:38:00,70.4,67.0,29.88,ENE,58,3.0,5.0,89,0.00,,,0.00,Wunderground v.1.15,2013-07-21 13:38:00,
2013-07-21 08:43:00,70.7,67.3,29.88,East,90,3.0,3.0,89,0.00,,,0.00,Wunderground v.1.15,2013-07-21 13:43:00,
2013-07-21 08:48:00,71.1,67.7,29.88,ESE,120,3.0,4.0,89,0.00,,,0.00,Wunderground v.1.15,2013-07-21 13:48:00,
2013-07-21 08:53:00,71.8,68.4,29.88,ENE,72,3.0,4.0,89,0.00,,,0.00,Wunderground v.1.15,2013-07-21 13:53:00,
2013-07-21 08:58:00,72.4,69.0,29.88,East,81,3.0,4.0,89,0.00,,,0.00,Wunderground v.1.15,2013-07-21 13:58:00,
2013-07-21 09:03:00,73.1,69.7,29.88,ENE,57,2.0,5.0,89,0.00,,,0.00,Wunderground v.1.15,2013-07-21 14:03:00,
2013-07-21 09:09:00,73.7,69.9,29.88,ESE,102,2.0,5.0,88,0.00,,,0.00,Wunderground v.1.15,2013-07-21 14:09:00,
2013-07-21 09:14:00,74.2,70.1,29.89,SW,236,2.0,3.0,87,0.00,,,0.00,Wunderground v.1.15,2013-07-21 14:14:00,
2013-07-21 09:20:00,75.3,70.5,29.89,SSE,168,1.0,1.0,85,0.00,,,0.00,Wunderground v.1.15,2013-07-21 14:20:00,
2013-07-21 09:25:00,75.5,70.7,29.89,SSE,154,1.0,4.0,85,0.00,,,0.00,Wunderground v.1.15,2013-07-21 14:25:00,
2013-07-21 09:30:00,75.6,70.8,29.89,ESE,116,2.0,2.0,85,0.00,,,0.00,Wunderground v.1.15,2013-07-21 14:30:00,
2013-07-21 09:35:00,76.1,70.9,29.89,ESE,116,2.0,5.0,84,0.00,,,0.00,Wunderground v.1.15,2013-07-21 14:35:00,
2013-07-21 09:40:00,76.4,71.2,29.88,ESE,110,2.0,2.0,84,0.00,,,0.00,Wunderground v.1.15,2013-07-21 14:40:00,
2013-07-21 09:45:00,77.0,71.1,29.88,South,171,2.0,3.0,82,0.00,,,0.00,Wunderground v.1.15,2013-07-21 14:45:00,
2013-07-21 09:50:00,77.7,71.0,29.88,SE,139,2.0,4.0,80,0.00,,,0.00,Wunderground v.1.15,2013-07-21 14:50:00,
2013-07-21 09:55:00,78.0,71.0,29.88,SSE,164,3.0,5.0,79,0.00,,,0.00,Wunderground v.1.15,2013-07-21 14:55:00,
2013-07-21 10:00:00,78.7,71.3,29.88,SE,138,4.0,6.0,78,0.00,,,0.00,Wunderground v.1.15,2013-07-21 15:00:00,
2013-07-21 10:06:00,79.6,72.1,29.88,ESE,104,4.0,7.0,78,0.00,,,0.00,Wunderground v.1.15,2013-07-21 15:06:00,
2013-07-21 10:11:00,80.2,71.9,29.88,SSE,151,4.0,4.0,76,0.00,,,0.00,Wunderground v.1.15,2013-07-21 15:11:00,
2013-07-21 10:16:00,81.0,70.7,29.88,SE,142,4.0,8.0,71,0.00,,,0.00,Wunderground v.1.15,2013-07-21 15:16:00,
2013-07-21 10:21:00,80.7,70.8,29.88,SE,130,5.0,7.0,72,0.00,,,0.00,Wunderground v.1.15,2013-07-21 15:21:00,
2013-07-21 10:26:00,80.7,71.2,29.88,SSE,162,5.0,7.0,73,0.00,,,0.00,Wunderground v.1.15,2013-07-21 15:26:00,
2013-07-21 10:31:00,80.9,71.8,29.88,SSE,151,4.0,4.0,74,0.00,,,0.00,Wunderground v.1.15,2013-07-21 15:31:00,
2013-07-21 10:36:00,80.9,71.4,29.88,SE,132,4.0,6.0,73,0.00,,,0.00,Wunderground v.1.15,2013-07-21 15:36:00,
2013-07-21 10:41:00,80.7,70.8,29.88,SE,138,4.0,4.0,72,0.00,,,0.00,Wunderground v.1.15,2013-07-21 15:41:00,
2013-07-21 10:46:00,81.0,72.3,29.88,SE,135,4.0,4.0,75,0.00,,,0.00,Wunderground v.1.15,2013-07-21 15:46:00,
2013-07-21 10:51:00,80.9,71.0,29.88,SSE,167,4.0,6.0,72,0.00,,,0.00,Wunderground v.1.15,2013-07-21 15:51:00,
2013-07-21 10:56:00,81.0,71.1,29.88,South,186,5.0,8.0,72,0.00,,,0.00,Wunderground v.1.15,2013-07-21 15:56:00,
2013-07-21 11:02:00,81.1,71.2,29.88,SSE,149,4.0,6.0,72,0.00,,,0.00,Wunderground v.1.15,2013-07-21 16:02:00,
2013-07-21 11:07:00,81.2,70.9,29.88,South,182,4.0,6.0,71,0.00,,,0.00,Wunderground v.1.15,2013-07-21 16:07:00,
2013-07-21 11:12:00,81.3,71.0,29.88,SW,215,5.0,6.0,71,0.00,,,0.00,Wunderground v.1.15,2013-07-21 16:12:00,
2013-07-21 11:17:00,81.5,71.6,29.88,SSW,194,4.0,6.0,72,0.00,,,0.00,Wunderground v.1.15,2013-07-21 16:17:00,
2013-07-21 11:22:00,81.5,70.3,29.88,SW,220,4.0,6.0,69,0.00,,,0.00,Wunderground v.1.15,2013-07-21 16:22:00,
2013-07-21 11:27:00,81.6,71.3,29.88,SSW,202,4.0,6.0,71,0.00,,,0.00,Wunderground v.1.15,2013-07-21 16:27:00,
2013-07-21 11:32:00,81.8,71.5,29.88,South,183,4.0,4.0,71,0.00,,,0.00,Wunderground v.1.15,2013-07-21 16:32:00,
2013-07-21 11:37:00,81.7,71.0,29.88,SSW,206,4.0,6.0,70,0.00,,,0.00,Wunderground v.1.15,2013-07-21 16:37:00,
2013-07-21 11:42:00,81.4,71.1,29.88,South,178,4.0,5.0,71,0.00,,,0.00,Wunderground v.1.15,2013-07-21 16:42:00,
2013-07-21 11:48:00,81.2,71.7,29.88,SSE,163,4.0,5.0,73,0.00,,,0.00,Wunderground v.1.15,2013-07-21 16:48:00,
2013-07-21 11:53:00,81.2,72.1,29.89,SE,141,3.0,4.0,74,0.00,,,0.00,Wunderground v.1.15,2013-07-21 16:53:00,
2013-07-21 11:58:00,80.8,71.7,29.88,SSE,156,3.0,5.0,74,0.00,,,0.00,Wunderground v.1.15,2013-07-21 16:58:00,
2013-07-21 12:03:00,80.6,71.9,29.88,SSE,152,4.0,6.0,75,0.00,,,0.00,Wunderground v.1.15,2013-07-21 17:03:00,
2013-07-21 12:08:00,80.3,72.0,29.88,SSE,161,4.0,6.0,76,0.00,,,0.00,Wunderground v.1.15,2013-07-21 17:08:00,
2013-07-21 12:14:00,80.1,72.2,29.88,SSE,157,5.0,7.0,77,0.00,,,0.00,Wunderground v.1.15,2013-07-21 17:14:00,
2013-07-21 12:19:00,79.9,72.4,29.88,South,183,5.0,7.0,78,0.00,,,0.00,Wunderground v.1.15,2013-07-21 17:19:00,
2013-07-21 12:24:00,79.7,72.6,29.88,South,191,4.0,5.0,79,0.00,,,0.00,Wunderground v.1.15,2013-07-21 17:24:00,
2013-07-21 12:29:00,79.7,72.6,29.88,SW,227,3.0,5.0,79,0.00,,,0.00,Wunderground v.1.15,2013-07-21 17:29:00,
2013-07-21 12:34:00,79.3,72.2,29.88,SSW,198,2.0,7.0,79,0.00,,,0.00,Wunderground v.1.15,2013-07-21 17:34:00,
2013-07-21 12:39:00,79.0,72.3,29.88,SSW,196,3.0,7.0,80,0.00,,,0.00,Wunderground v.1.15,2013-07-21 17:39:00,
2013-07-21 12:44:00,78.8,72.1,29.87,South,171,3.0,4.0,80,0.00,,,0.00,Wunderground v.1.15,2013-07-21 17:44:00,
2013-07-21 12:49:00,78.4,72.4,29.87,SSW,195,3.0,5.0,82,0.00,,,0.00,Wunderground v.1.15,2013-07-21 17:49:00,
2013-07-21 12:54:00,78.1,72.5,29.87,SSE,156,4.0,6.0,83,0.00,,,0.00,Wunderground v.1.15,2013-07-21 17:54:00,
2013-07-21 12:59:00,77.9,72.3,29.87,SSE,154,3.0,6.0,83,0.00,,,0.00,Wunderground v.1.15,2013-07-21 17:59:00,
2013-07-21 13:05:00,77.6,72.4,29.87,South,169,3.0,5.0,84,0.00,,,0.00,Wunderground v.1.15,2013-07-21 18:05:00,
2013-07-21 13:10:00,77.5,72.6,29.87,SSW,194,4.0,6.0,85,0.00,,,0.00,Wunderground v.1.15,2013-07-21 18:10:00,
2013-07-21 13:15:00,77.4,72.5,29.87,South,191,4.0,6.0,85,0.00,,,0.00,Wunderground v.1.15,2013-07-21 18:15:00,
2013-07-21 13:20:00,77.1,72.2,29.87,SE,145,4.0,4.0,85,0.00,,,0.00,Wunderground v.1.15,2013-07-21 18:20:00,
2013-07-21 13:26:00,76.9,72.4,29.87,SSE,151,4.0,5.0,86,0.00,,,0.00,Wunderground v.1.15,2013-07-21 18:26:00,
2013-07-21 13:31:00,76.7,72.2,29.87,SW,215,4.0,4.0,86,0.00,,,0.00,Wunderground v.1.15,2013-07-21 18:31:00,
2013-07-21 13:36:00,76.6,72.1,29.87,SSW,209,4.0,5.0,86,0.00,,,0.00,Wunderground v.1.15,2013-07-21 18:36:00,
2013-07-21 13:41:00,76.5,72.0,29.87,SSE,159,3.0,4.0,86,0.00,,,0.00,Wunderground v.1.15,2013-07-21 18:41:00,
2013-07-21 13:47:00,76.5,72.0,29.87,SSW,212,3.0,4.0,86,0.00,,,0.00,Wunderground v.1.15,2013-07-21 18:47:00,
2013-07-21 13:52:00,76.5,72.0,29.87,SW,223,3.0,5.0,86,0.00,,,0.00,Wunderground v.1.15,2013-07-21 18:52:00,
2013-07-21 13:57:00,76.5,72.0,29.87,SSW,203,3.0,5.0,86,0.00,,,0.00,Wunderground v.1.15,2013-07-21 18:57:00,
2013-07-21 14:02:00,76.6,72.1,29.87,SSW,195,3.0,3.0,86,0.00,,,0.00,Wunderground v.1.15,2013-07-21 19:02:00,
2013-07-21 14:07:00,76.7,72.2,29.86,SSE,162,2.0,3.0,86,0.00,,,0.00,Wunderground v.1.15,2013-07-21 19:07:00,
2013-07-21 14:12:00,76.8,71.9,29.86,SSW,205,3.0,4.0,85,0.00,,,0.00,Wunderground v.1.15,2013-07-21 19:12:00,
2013-07-21 14:17:00,76.9,72.0,29.86,SSE,148,3.0,4.0,85,0.00,,,0.00,Wunderground v.1.15,2013-07-21 19:17:00,
2013-07-21 14:23:00,77.0,72.1,29.86,SE,138,4.0,5.0,85,0.00,,,0.00,Wunderground v.1.15,2013-07-21 19:23:00,
2013-07-21 14:28:00,77.0,72.1,29.86,SSE,149,4.0,7.0,85,0.00,,,0.00,Wunderground v.1.15,2013-07-21 19:28:00,
2013-07-21 14:33:00,77.0,72.5,29.86,SE,145,5.0,6.0,86,0.00,,,0.00,Wunderground v.1.15,2013-07-21 19:33:00,
2013-07-21 14:38:00,77.0,72.5,29.86,SSE,163,5.0,7.0,86,0.00,,,0.00,Wunderground v.1.15,2013-07-21 19:38:00,
2013-07-21 14:43:00,76.9,72.4,29.85,ESE,121,6.0,7.0,86,0.00,,,0.00,Wunderground v.1.15,2013-07-21 19:43:00,
2013-07-21 14:48:00,76.7,72.5,29.85,SSE,149,5.0,8.0,87,0.00,,,0.00,Wunderground v.1.15,2013-07-21 19:48:00,
2013-07-21 14:53:00,76.6,72.4,29.85,SE,134,5.0,7.0,87,0.00,,,0.00,Wunderground v.1.15,2013-07-21 19:53:00,
2013-07-21 14:58:00,76.6,72.4,29.85,SSE,165,5.0,7.0,87,0.00,,,0.00,Wunderground v.1.15,2013-07-21 19:58:00,
2013-07-21 15:03:00,76.7,72.5,29.85,SE,136,5.0,5.0,87,0.00,,,0.00,Wunderground v.1.15,2013-07-21 20:03:00,
2013-07-21 15:08:00,76.9,72.7,29.85,South,173,4.0,6.0,87,0.00,,,0.00,Wunderground v.1.15,2013-07-21 20:08:00,
2013-07-21 15:13:00,77.2,73.0,29.85,SSW,192,5.0,8.0,87,0.00,,,0.00,Wunderground v.1.15,2013-07-21 20:13:00,
2013-07-21 15:18:00,77.3,72.8,29.85,SW,221,5.0,8.0,86,0.00,,,0.00,Wunderground v.1.15,2013-07-21 20:18:00,
2013-07-21 15:23:00,77.4,72.9,29.85,SSW,205,4.0,5.0,86,0.00,,,0.00,Wunderground v.1.15,2013-07-21 20:23:00,
2013-07-21 15:29:00,77.5,73.0,29.84,SE,137,4.0,5.0,86,0.00,,,0.00,Wunderground v.1.15,2013-07-21 20:29:00,
2013-07-21 15:34:00,77.4,72.9,29.84,ESE,119,4.0,6.0,86,0.00,,,0.00,Wunderground v.1.15,2013-07-21 20:34:00,
2013-07-21 15:39:00,77.7,72.8,29.84,SSE,147,4.0,6.0,85,0.00,,,0.00,Wunderground v.1.15,2013-07-21 20:39:00,
2013-07-21 15:44:00,77.7,72.8,29.83,SSE,149,4.0,7.0,85,0.00,,,0.00,Wunderground v.1.15,2013-07-21 20:44:00,
2013-07-21 15:49:00,77.8,72.9,29.83,SE,136,5.0,7.0,85,0.00,,,0.00,Wunderground v.1.15,2013-07-21 20:49:00,
2013-07-21 15:54:00,78.0,73.1,29.83,ESE,111,5.0,6.0,85,0.00,,,0.00,Wunderground v.1.15,2013-07-21 20:54:00,
2013-07-21 15:59:00,78.1,73.2,29.83,SE,133,3.0,6.0,85,0.00,,,0.00,Wunderground v.1.15,2013-07-21 20:59:00,
2013-07-21 16:05:00,78.5,72.9,29.83,SSE,167,3.0,5.0,83,0.00,,,0.00,Wunderground v.1.15,2013-07-21 21:05:00,
2013-07-21 16:10:00,78.6,73.0,29.83,SW,230,3.0,3.0,83,0.00,,,0.00,Wunderground v.1.15,2013-07-21 21:10:00,
2013-07-21 16:15:00,78.9,73.3,29.83,South,173,2.0,3.0,83,0.00,,,0.00,Wunderground v.1.15,2013-07-21 21:15:00,
2013-07-21 16:20:00,78.9,72.6,29.82,SE,142,2.0,2.0,81,0.00,,,0.00,Wunderground v.1.15,2013-07-21 21:20:00,
2013-07-21 16:25:00,78.7,72.7,29.82,SSE,168,2.0,3.0,82,0.00,,,0.00,Wunderground v.1.15,2013-07-21 21:25:00,
2013-07-21 16:30:00,78.9,72.6,29.82,SSE,156,2.0,3.0,81,0.00,,,0.00,Wunderground v.1.15,2013-07-21 21:30:00,
2013-07-21 16:35:00,78.9,72.9,29.82,SSW,202,3.0,3.0,82,0.00,,,0.00,Wunderground v.1.15,2013-07-21 21:35:00,
2013-07-21 16:40:00,78.9,72.9,29.81,South,186,2.0,2.0,82,0.00,,,0.00,Wunderground v.1.15,2013-07-21 21:40:00,
2013-07-21 16:45:00,79.2,72.9,29.81,South,175,1.0,2.0,81,0.00,,,0.00,Wunderground v.1.15,2013-07-21 21:45:00,
2013-07-21 16:50:00,79.2,72.5,29.81,SSW,213,2.0,2.0,80,0.00,,,0.00,Wunderground v.1.15,2013-07-21 21:50:00,
2013-07-21 16:55:00,79.1,72.4,29.81,South,182,3.0,4.0,80,0.00,,,0.00,Wunderground v.1.15,2013-07-21 21:55:00,
2013-07-21 17:00:00,79.2,72.5,29.81,South,175,2.0,4.0,80,0.00,,,0.00,Wunderground v.1.15,2013-07-21 22:00:00,
2013-07-21 17:06:00,79.0,72.7,29.81,SSW,194,3.0,5.0,81,0.00,,,0.00,Wunderground v.1.15,2013-07-21 22:06:00,
2013-07-21 17:11:00,78.8,72.5,29.81,SSE,165,4.0,6.0,81,0.00,,,0.00,Wunderground v.1.15,2013-07-21 22:11:00,
2013-07-21 17:16:00,78.8,72.8,29.80,SSE,163,4.0,6.0,82,0.00,,,0.00,Wunderground v.1.15,2013-07-21 22:16:00,
2013-07-21 17:21:00,78.6,72.6,29.80,SE,140,2.0,4.0,82,0.00,,,0.00,Wunderground v.1.15,2013-07-21 22:21:00,
2013-07-21 17:26:00,78.6,73.0,29.80,SSE,167,2.0,4.0,83,0.00,,,0.00,Wunderground v.1.15,2013-07-21 22:26:00,
2013-07-21 17:31:00,78.6,73.0,29.80,SSE,166,2.0,2.0,83,0.00,,,0.00,Wunderground v.1.15,2013-07-21 22:31:00,
2013-07-21 17:36:00,78.7,73.1,29.80,SSW,212,2.0,3.0,83,0.00,,,0.00,Wunderground v.1.15,2013-07-21 22:36:00,
2013-07-21 17:42:00,78.7,73.5,29.80,SSW,209,2.0,3.0,84,0.00,,,0.00,Wunderground v.1.15,2013-07-21 22:42:00,
2013-07-21 17:48:00,78.6,72.6,29.80,SSE,164,3.0,6.0,82,0.00,,,0.00,Wunderground v.1.15,2013-07-21 22:48:00,
2013-07-21 17:53:00,78.6,72.6,29.80,SSW,205,4.0,4.0,82,0.00,,,0.00,Wunderground v.1.15,2013-07-21 22:53:00,
2013-07-21 17:58:00,78.5,72.5,29.80,SSE,161,4.0,5.0,82,0.00,,,0.00,Wunderground v.1.15,2013-07-21 22:58:00,
2013-07-21 18:03:00,78.3,72.7,29.80,South,187,4.0,4.0,83,0.00,,,0.00,Wunderground v.1.15,2013-07-21 23:03:00,
2013-07-21 18:09:00,78.2,72.6,29.80,SSE,158,4.0,6.0,83,0.00,,,0.00,Wunderground v.1.15,2013-07-21 23:09:00,
2013-07-21 18:14:00,78.0,72.8,29.80,SSE,166,3.0,4.0,84,0.00,,,0.00,Wunderground v.1.15,2013-07-21 23:14:00,
2013-07-21 18:19:00,77.8,72.6,29.80,SSW,206,3.0,4.0,84,0.00,,,0.00,Wunderground v.1.15,2013-07-21 23:19:00,
2013-07-21 18:24:00,77.7,72.5,29.80,South,190,3.0,4.0,84,0.00,,,0.00,Wunderground v.1.15,2013-07-21 23:24:00,
2013-07-21 18:29:00,77.6,72.7,29.79,SW,218,2.0,4.0,85,0.00,,,0.00,Wunderground v.1.15,2013-07-21 23:29:00,
2013-07-21 18:34:00,77.5,72.6,29.79,SW,227,1.0,2.0,85,0.00,,,0.00,Wunderground v.1.15,2013-07-21 23:34:00,
2013-07-21 18:39:00,77.4,72.5,29.79,SW,219,1.0,2.0,85,0.00,,,0.00,Wunderground v.1.15,2013-07-21 23:39:00,
2013-07-21 18:44:00,77.1,72.2,29.80,SW,220,1.0,1.0,85,0.00,,,0.00,Wunderground v.1.15,2013-07-21 23:44:00,
2013-07-21 18:50:00,76.8,71.9,29.80,SW,225,1.0,1.0,85,0.00,,,0.00,Wunderground v.1.15,2013-07-21 23:50:00,
2013-07-21 18:56:00,76.5,71.7,29.80,SW,222,1.0,2.0,85,0.00,,,0.00,Wunderground v.1.15,2013-07-21 23:56:00,
2013-07-21 19:02:00,76.3,71.5,29.80,SW,218,1.0,1.0,85,0.00,,,0.00,Wunderground v.1.15,2013-07-22 00:02:00,
2013-07-21 19:08:00,76.2,71.4,29.80,SW,215,1.0,3.0,85,0.00,,,0.00,Wunderground v.1.15,2013-07-22 00:08:00,
2013-07-21 19:14:00,75.9,71.4,29.80,SW,215,2.0,2.0,86,0.00,,,0.00,Wunderground v.1.15,2013-07-22 00:14:00,
2013-07-21 19:20:00,75.6,71.1,29.81,SW,217,2.0,2.0,86,0.00,,,0.00,Wunderground v.1.15,2013-07-22 00:20:00,
2013-07-21 19:25:00,75.4,70.9,29.81,SW,220,1.0,2.0,86,0.00,,,0.00,Wunderground v.1.15,2013-07-22 00:25:00,
2013-07-21 19:31:00,75.3,70.8,29.81,SW,219,1.0,1.0,86,0.00,,,0.00,Wunderground v.1.15,2013-07-22 00:31:00,
2013-07-21 19:36:00,75.3,70.8,29.81,SW,219,1.0,1.0,86,0.00,,,0.00,Wunderground v.1.15,2013-07-22 00:36:00,
2013-07-21 19:41:00,75.2,70.7,29.81,SW,219,0.0,1.0,86,0.00,,,0.00,Wunderground v.1.15,2013-07-22 00:41:00,
2013-07-21 19:46:00,75.2,70.7,29.81,SW,219,0.0,1.0,86,0.00,,,0.00,Wunderground v.1.15,2013-07-22 00:46:00,
2013-07-21 19:51:00,75.0,70.9,29.81,SW,218,0.0,0.0,87,0.00,,,0.00,Wunderground v.1.15,2013-07-22 00:51:00,
2013-07-21 19:56:00,74.7,70.9,29.81,SW,218,0.0,0.0,88,0.00,,,0.00,Wunderground v.1.15,2013-07-22 00:56:00,
2013-07-21 20:01:00,74.5,70.7,29.82,SW,218,0.0,0.0,88,0.00,,,0.00,Wunderground v.1.15,2013-07-22 01:01:00,
2013-07-21 20:07:00,74.4,70.9,29.82,SW,218,0.0,0.0,89,0.00,,,0.00,Wunderground v.1.15,2013-07-22 01:07:00,
2013-07-21 20:12:00,74.3,70.5,29.82,SW,218,0.0,0.0,88,0.00,,,0.00,Wunderground v.1.15,2013-07-22 01:12:00,
2013-07-21 20:17:00,74.2,70.4,29.83,SW,218,0.0,0.0,88,0.00,,,0.00,Wunderground v.1.15,2013-07-22 01:17:00,
2013-07-21 20:22:00,74.3,70.5,29.83,SW,218,0.0,0.0,88,0.00,,,0.00,Wunderground v.1.15,2013-07-22 01:22:00,
2013-07-21 20:27:00,74.3,70.5,29.83,SW,218,0.0,0.0,88,0.00,,,0.00,Wunderground v.1.15,2013-07-22 01:27:00,
2013-07-21 20:32:00,74.3,70.5,29.83,SW,218,0.0,0.0,88,0.00,,,0.00,Wunderground v.1.15,2013-07-22 01:32:00,
2013-07-21 20:37:00,74.1,70.6,29.83,SW,218,0.0,0.0,89,0.00,,,0.00,Wunderground v.1.15,2013-07-22 01:37:00,
2013-07-21 20:42:00,74.0,70.6,29.83,SSW,207,0.0,0.0,89,0.00,,,0.00,Wunderground v.1.15,2013-07-22 01:42:00,
2013-07-21 20:47:00,73.9,70.5,29.83,SSW,207,0.0,0.0,89,0.00,,,0.00,Wunderground v.1.15,2013-07-22 01:47:00,
2013-07-21 20:52:00,73.8,70.4,29.83,SSW,208,0.0,0.0,89,0.00,,,0.01,Wunderground v.1.15,2013-07-22 01:52:00,
2013-07-21 20:58:00,73.6,70.2,29.83,SSW,208,0.0,0.0,89,0.00,,,0.01,Wunderground v.1.15,2013-07-22 01:58:00,
2013-07-21 21:03:00,73.7,70.3,29.83,SSW,208,0.0,0.0,89,0.05,,,0.02,Wunderground v.1.15,2013-07-22 02:03:00,
2013-07-21 21:09:00,73.6,70.2,29.83,SSW,208,0.0,0.0,89,0.05,,,0.02,Wunderground v.1.15,2013-07-22 02:09:00,
2013-07-21 21:14:00,73.5,70.1,29.83,SSW,207,0.0,0.0,89,0.05,,,0.02,Wunderground v.1.15,2013-07-22 02:14:00,
2013-07-21 21:19:00,73.6,70.2,29.82,SSW,208,0.0,0.0,89,0.04,,,0.03,Wunderground v.1.15,2013-07-22 02:19:00,
2013-07-21 21:24:00,73.3,69.9,29.82,South,173,0.0,1.0,89,0.04,,,0.03,Wunderground v.1.15,2013-07-22 02:24:00,
2013-07-21 21:29:00,73.1,69.7,29.83,SE,134,1.0,2.0,89,0.04,,,0.03,Wunderground v.1.15,2013-07-22 02:29:00,
2013-07-21 21:34:00,72.9,69.5,29.82,SE,143,2.0,3.0,89,0.00,,,0.03,Wunderground v.1.15,2013-07-22 02:34:00,
2013-07-21 21:39:00,72.7,69.3,29.82,SE,142,2.0,3.0,89,0.00,,,0.03,Wunderground v.1.15,2013-07-22 02:39:00,
2013-07-21 21:44:00,72.8,69.4,29.82,SSE,151,2.0,3.0,89,0.00,,,0.04,Wunderground v.1.15,2013-07-22 02:44:00,
2013-07-21 21:49:00,72.8,69.4,29.82,South,169,2.0,3.0,89,0.00,,,0.04,Wunderground v.1.15,2013-07-22 02:49:00,
2013-07-21 21:54:00,72.7,69.3,29.82,SSE,168,1.0,2.0,89,0.00,,,0.04,Wunderground v.1.15,2013-07-22 02:54:00,
2013-07-21 21:59:00,72.5,69.1,29.82,SSE,167,1.0,2.0,89,0.00,,,0.04,Wunderground v.1.15,2013-07-22 02:59:00,
2013-07-21 22:05:00,72.3,68.9,29.82,SSE,168,1.0,1.0,89,0.00,,,0.04,Wunderground v.1.15,2013-07-22 03:05:00,
2013-07-21 22:10:00,72.2,68.8,29.82,SSE,168,1.0,1.0,89,0.00,,,0.04,Wunderground v.1.15,2013-07-22 03:10:00,
2013-07-21 22:15:00,72.2,68.8,29.82,South,169,1.0,1.0,89,0.00,,,0.04,Wunderground v.1.15,2013-07-22 03:15:00,
2013-07-21 22:20:00,72.2,68.8,29.82,South,169,1.0,2.0,89,0.00,,,0.04,Wunderground v.1.15,2013-07-22 03:20:00,
2013-07-21 22:25:00,72.2,68.8,29.83,SE,143,2.0,3.0,89,0.00,,,0.04,Wunderground v.1.15,2013-07-22 03:25:00,
2013-07-21 22:30:00,72.2,68.8,29.83,SSE,149,2.0,2.0,89,0.00,,,0.04,Wunderground v.1.15,2013-07-22 03:30:00,
2013-07-21 22:35:00,72.1,68.7,29.82,SE,142,3.0,3.0,89,0.00,,,0.04,Wunderground v.1.15,2013-07-22 03:35:00,
2013-07-21 22:40:00,72.2,68.8,29.82,SE,142,2.0,2.0,89,0.00,,,0.04,Wunderground v.1.15,2013-07-22 03:40:00,
2013-07-21 22:45:00,72.2,68.8,29.82,SE,142,2.0,3.0,89,0.00,,,0.04,Wunderground v.1.15,2013-07-22 03:45:00,
2013-07-21 22:50:00,72.2,68.8,29.82,SSE,149,3.0,3.0,89,0.00,,,0.04,Wunderground v.1.15,2013-07-22 03:50:00,
2013-07-21 22:55:00,72.2,68.8,29.82,SSE,152,3.0,3.0,89,0.00,,,0.04,Wunderground v.1.15,2013-07-22 03:55:00,
2013-07-21 23:00:00,72.2,68.8,29.82,SE,138,3.0,3.0,89,0.00,,,0.04,Wunderground v.1.15,2013-07-22 04:00:00,
2013-07-21 23:01:00,72.2,68.8,29.82,SSE,158,3.0,3.0,89,0.00,,,0.04,Wunderground v.1.15,2013-07-22 04:01:00,
2013-07-21 23:02:00,72.2,68.8,29.82,SSE,156,3.0,3.0,89,0.00,,,0.04,Wunderground v.1.15,2013-07-22 04:02:00,
2013-07-21 23:05:00,72.2,68.8,29.82,South,178,2.0,3.0,89,0.00,,,0.04,Wunderground v.1.15,2013-07-22 04:05:00,
2013-07-21 23:06:00,72.3,68.9,29.82,South,184,2.0,3.0,89,0.00,,,0.04,Wunderground v.1.15,2013-07-22 04:06:00,
2013-07-21 23:08:00,72.3,68.9,29.82,South,186,2.0,3.0,89,0.00,,,0.04,Wunderground v.1.15,2013-07-22 04:08:00,
2013-07-21 23:14:00,72.2,68.8,29.82,SSW,202,1.0,2.0,89,0.00,,,0.04,Wunderground v.1.15,2013-07-22 04:14:00,
2013-07-21 23:19:00,72.1,68.7,29.82,SSW,211,1.0,2.0,89,0.00,,,0.04,Wunderground v.1.15,2013-07-22 04:19:00,
2013-07-21 23:24:00,72.0,68.6,29.82,SW,218,0.0,1.0,89,0.00,,,0.04,Wunderground v.1.15,2013-07-22 04:24:00,
2013-07-21 23:29:00,72.0,68.6,29.82,SW,218,0.0,1.0,89,0.00,,,0.04,Wunderground v.1.15,2013-07-22 04:29:00,
2013-07-21 23:34:00,71.9,68.5,29.82,SW,215,1.0,3.0,89,0.00,,,0.04,Wunderground v.1.15,2013-07-22 04:34:00,
2013-07-21 23:39:00,71.8,68.4,29.82,SW,215,1.0,3.0,89,0.00,,,0.04,Wunderground v.1.15,2013-07-22 04:39:00,
2013-07-21 23:44:00,71.7,68.3,29.82,SW,215,0.0,1.0,89,0.00,,,0.04,Wunderground v.1.15,2013-07-22 04:44:00,
2013-07-21 23:49:00,71.6,68.2,29.81,SW,215,0.0,1.0,89,0.00,,,0.04,Wunderground v.1.15,2013-07-22 04:49:00,
2013-07-21 23:54:00,71.5,68.1,29.81,SE,137,1.0,3.0,89,0.00,,,0.04,Wunderground v.1.15,2013-07-22 04:54:00,
2013-07-21 23:59:00,71.6,68.2,29.80,ENE,62,2.0,3.0,89,0.00,,,0.05,Wunderground v.1.15,2013-07-22 04:59:00,